Content
SEND FEEDBACK

Daily
Averages
Monthly
Summary
United States of America

PETALUMA, CALIFORNIA


Home > North America > United States > California
Elevation: 1 foot     Latitude: 38 14N     Longitude: 122 38W

WEATHER
 
SELECT A DAY
Number of Records: 80,312;   Date Range: 4/19/11 - 12/15/14
 
SHARE

PRINT THIS DATA

[ ← Previous Day ]
WEATHER ALMANAC - FEBRUARY 16, 2013
[ Next Day → ]
[ °C ]   °F
Weather ElementAverageHighLow
Temperature49.4 °F68 °F (2:55 pm)35.6 °F (4:15 am)
Dewpoint43.1 °F50 °F (4:15 pm)35.6 °F (4:15 am)
Humidity82.9 %100 % (12:55 am)43 % (2:55 pm)
Barometer30.16 in30.26 in (12:35 am)30.07 in (11:35 pm)
Wind Speed2.5 mph8.1 mph (4:55 pm)
Weather ElementAverage
Visibility9.5 mi
Wind DirectionSSE (156.4 °)

Weather ElementTotal
Precipitation---
Heating Degree Days13.2 (Base 65)
Growing Degree Days1.8 (Base 50)
Averaged from 67 records on February 16, 2013
WEATHER CONDITIONS BREAKOUT
WIND DIRECTION BREAKOUT
WEATHER BY HOUR - FEBRUARY 16, 2013
[ °C ]   °F
Local TimeTemperatureDewpointHumidityBarometerVisibilityWind DirectionWind SpeedGust SpeedPrecipitationEventsConditions
12:35 AM41.0 °F39.2 °F93 %30.26 in10.0 miCalmClear
12:55 AM37.4 °F37.4 °F100 %30.26 in10.0 miCalmPartly Cloudy
1:35 AM39.2 °F39.2 °F100 %30.26 in10.0 miWest (280°)3.5 mphClear
1:55 AM39.2 °F39.2 °F100 %30.26 in10.0 miWest (280°)3.5 mphClear
2:15 AM39.2 °F39.2 °F100 %30.25 in10.0 miCalmClear
2:35 AM39.2 °F39.2 °F100 %30.25 in10.0 miCalmClear
3:35 AM39.2 °F39.2 °F100 %30.23 in10.0 miWNW (300°)5.8 mphClear
3:55 AM37.4 °F37.4 °F100 %30.23 in10.0 miCalmClear
4:15 AM35.6 °F35.6 °F100 %30.22 in9.0 miCalmClear
4:35 AM37.4 °F37.4 °F100 %30.22 in10.0 miCalmClear
4:55 AM37.4 °F37.4 °F100 %30.22 in10.0 miNNW (340°)4.6 mphClear
5:35 AM37.4 °F37.4 °F100 %30.22 in10.0 miCalmClear
5:55 AM37.4 °F37.4 °F100 %30.22 in10.0 miCalmClear
6:15 AM37.4 °F37.4 °F100 %30.22 in10.0 miCalmClear
6:35 AM35.6 °F35.6 °F100 %30.22 in3.0 miCalmClear
6:55 AM35.6 °F35.6 °F100 %30.22 in10.0 miCalmClear
7:15 AM37.4 °F37.4 °F100 %30.22 in10.0 miCalmClear
7:35 AM37.4 °F37.4 °F100 %30.22 in10.0 miCalmClear
7:55 AM37.4 °F37.4 °F100 %30.22 in10.0 miCalmClear
8:15 AM39.2 °F39.2 °F100 %30.22 in10.0 miWNW (290°)3.5 mphClear
8:35 AM41.0 °F41.0 °F100 %30.23 in10.0 miCalmClear
8:55 AM44.6 °F42.8 °F93 %30.23 in10.0 miCalmClear
9:15 AM46.4 °F44.6 °F93 %30.22 in10.0 miCalmClear
9:35 AM48.2 °F46.4 °F93 %30.22 in10.0 miWest (260°)3.5 mphClear
9:55 AM50.0 °F46.4 °F87 %30.22 in10.0 miCalm
10:15 AM53.6 °F44.6 °F72 %30.22 in10.0 miCalmClear
10:35 AM55.4 °F44.6 °F67 %30.22 in10.0 miNNW (330°)3.5 mphClear
10:55 AM55.4 °F46.4 °F72 %30.21 in10.0 miCalmClear
11:15 AM57.2 °F44.6 °F63 %30.21 in10.0 miCalmClear
11:35 AM59.0 °F46.4 °F63 %30.20 in10.0 miCalmClear
11:55 AM59.0 °F48.2 °F67 %30.19 in10.0 miCalmClear
12:15 PM60.8 °F46.4 °F59 %30.18 in10.0 miCalmClear
12:35 PM62.6 °F46.4 °F55 %30.17 in10.0 miCalmClear
12:55 PM64.4 °F44.6 °F49 %30.16 in10.0 miNNW (340°)3.5 mphClear
1:15 PM64.4 °F44.6 °F49 %30.15 in10.0 miCalmClear
1:35 PM66.2 °F44.6 °F46 %30.14 in10.0 miCalmClear
1:55 PM66.2 °F44.6 °F46 %30.13 in10.0 miCalmClear
2:15 PM66.2 °F44.6 °F46 %30.12 in10.0 miCalmClear
2:35 PM66.2 °F44.6 °F46 %30.11 in10.0 miCalmClear
2:55 PM68.0 °F44.6 °F43 %30.11 in10.0 miSE (130°)3.5 mphClear
3:15 PM68.0 °F46.4 °F46 %30.10 in10.0 miCalmClear
3:35 PM68.0 °F44.6 °F43 %30.10 in10.0 miEast (100°)3.5 mphClear
3:55 PM68.0 °F44.6 °F43 %30.09 in10.0 miCalmClear
4:15 PM68.0 °F50.0 °F52 %30.09 in10.0 miWest (280°)6.9 mphClear
4:35 PM64.4 °F46.4 °F52 %30.09 in10.0 miNW (310°)5.8 mphClear
4:55 PM60.8 °F48.2 °F63 %30.09 in10.0 miNW (320°)8.1 mphClear
5:15 PM57.2 °F46.4 °F67 %30.09 in10.0 miNW (320°)4.6 mphClear
5:35 PM55.4 °F46.4 °F72 %30.09 in10.0 miWNW (300°)6.9 mphClear
5:55 PM53.6 °F44.6 °F72 %30.09 in10.0 miNW (310°)4.6 mphClear
6:15 PM51.8 °F46.4 °F82 %30.09 in10.0 miNW (320°)6.9 mphClear
6:35 PM50.0 °F46.4 °F87 %30.09 in10.0 miNW (310°)5.8 mphClear
6:55 PM50.0 °F46.4 °F87 %30.09 in10.0 miNW (320°)4.6 mphPartly Cloudy
7:15 PM48.2 °F46.4 °F93 %30.09 in10.0 miNNW (340°)4.6 mphMostly Cloudy
7:35 PM46.4 °F44.6 °F93 %30.09 in10.0 miNNW (340°)4.6 mphOvercast
7:55 PM46.4 °F46.4 °F100 %30.09 in10.0 miNNW (340°)5.8 mphOvercast
8:15 PM46.4 °F46.4 °F100 %30.09 in9.0 miNNW (330°)4.6 mphMostly Cloudy
8:35 PM46.4 °F46.4 °F100 %30.09 in8.0 miNNW (330°)4.6 mphOvercast
8:55 PM46.4 °F46.4 °F100 %30.09 in8.0 miNNW (330°)4.6 mphMostly Cloudy
9:15 PM44.6 °F44.6 °F100 %30.09 in8.0 miNNW (340°)5.8 mphMostly Cloudy
9:35 PM46.4 °F46.4 °F100 %30.09 in8.0 miNNW (330°)4.6 mphOvercast
9:55 PM44.6 °F44.6 °F100 %30.09 in8.0 miNW (320°)3.5 mphMostly Cloudy
10:15 PM44.6 °F44.6 °F100 %30.09 in8.0 miNorth (350°)3.5 mphOvercast
10:35 PM44.6 °F44.6 °F100 %30.09 in7.0 miNNW (330°)5.8 mphOvercast
10:55 PM44.6 °F44.6 °F100 %30.08 in7.0 miNNW (340°)4.6 mphOvercast
11:15 PM44.6 °F44.6 °F100 %30.08 in7.0 miNNW (340°)5.8 mphOvercast
11:35 PM42.8 °F42.8 °F100 %30.07 in7.0 miNorth (350°)3.5 mphOvercast
11:55 PM44.6 °F44.6 °F100 %30.07 in7.0 miNNW (330°)5.8 mphOvercast
Hourly data recorded from KO69, located miles away from Petaluma, California







STORIES FROM OUR PARTNERS